User: anonymous   Login
Location: Boca de Tacagua
(10.5333°N, 66.9833°W)
Time: 11:51:57
(UTC+00:00)
Language:

NOAA 19 - Orbit

View from above orbital plane
View from above orbital plane
View from above satellite
View from above satellite

Ground track
Ground track

The orbit data is extracted from the following two-line orbital elements,

1 33591U 09005A   23087.23059346  .00000300  00000-0  18645-3 0  9997
2 33591  99.1108 131.8273 0014832 110.1583 250.1185 14.12719449728510
Epoch (UTC): 28 March 2023 05:32:03
Eccentricity: 0.0014832
inclination: 99.1108°
perigee height: 839 km
apogee height: 861 km
right ascension of ascending node: 131.8273°
argument of perigee: 110.1583°
revolutions per day: 14.12719449
mean anomaly at epoch: 250.1185°
orbit number at epoch: 72851

The dashed part of the orbit path shows where the satellite is in the earth's shadow,  

DLR